[[{"header":{"parameterUnit":"m.s-1","parameterCategory":2,"la1":30.2992,"la2":30.254,"lo1":-89.0895,"lo2":-89.0443,"dy":0.0025,"dx":0.0025,"nx":19,"ny":19,"refTime":"2026-04-14T21:00:00:Z","depth":"0","parameterNumber":2,"parameterNumberName":"U-component_of_CURRENTS"},"data":[0,0,0,-0.1104,-0.1104,-0.1071,-0.107,-0.1041,-0.1041,0,0,0,0,0,0,0,0,0,0,0,-0.111,-0.111,-0.1104,-0.1104,-0.1071,-0.107,-0.1041,-0.1041,0,0,0,0,0,0,0,0,0,0,0,-0.111,-0.111,-0.111,-0.1104,-0.1071,-0.107,-0.1041,-0.1059,0,0,0,0,0,0,0,0,0,0,-0.1088,-0.1095,-0.111,-0.111,-0.1104,-0.1071,-0.107,-0.106,-0.1058,-0.1064,0,-0.1065,0,-0.1062,-0.1041,-0.1041,0,0,0,-0.1089,-0.1097,-0.1094,-0.111,-0.1104,-0.1071,-0.1081,-0.1059,-0.1057,-0.1062,-0.1064,-0.1063,-0.1062,-0.1041,-0.1041,-0.1013,-0.1013,0,0,-0.109,-0.1097,-0.1095,-0.1093,-0.1103,-0.1083,-0.1081,-0.1057,-0.1056,-0.1064,-0.1063,-0.1061,-0.1041,-0.1041,-0.1013,-0.1013,0,0,0,-0.1106,-0.1098,-0.1094,-0.1094,-0.1093,-0.1082,-0.108,-0.1056,-0.1057,-0.1062,-0.1061,-0.1041,-0.1041,-0.1014,-0.1013,-0.0924,0,0,0,-0.1106,-0.1108,-0.1095,-0.1098,-0.1093,-0.1073,-0.1079,-0.1058,-0.1056,-0.1061,-0.1041,-0.104,-0.1014,-0.1013,-0.0927,-0.0831,0,0,0,-0.111,-0.1108,-0.1108,-0.1098,-0.1092,-0.1073,-0.1071,-0.1057,-0.1056,-0.1041,-0.104,-0.1014,-0.1013,-0.0929,-0.0838,-0.0737,0,0,0,-0.1112,-0.1109,-0.1108,-0.1102,-0.1093,-0.1074,-0.1071,-0.106,-0.1049,-0.1041,-0.1014,-0.1013,-0.093,-0.0843,-0.0743,-0.0554,-0.0516,0,0,-0.1108,-0.1108,-0.1104,-0.1103,-0.1062,-0.1077,-0.1031,-0.1022,-0.1038,-0.1021,-0.102,-0.0926,-0.0839,-0.0739,-0.0518,-0.0479,0,0,0,-0.1102,-0.1068,-0.1068,-0.1039,-0.105,-0.099,-0.1009,-0.1,-0.0963,-0.1031,-0.0938,-0.0885,-0.0824,-0.0723,-0.0693,-0.0376,-0.101,-0.101,-0.101,-0.1054,-0.104,-0.0972,-0.0938,-0.0936,-0.0935,-0.0889,-0.0872,-0.0936,-0.0906,-0.0824,-0.0695,-0.0589,-0.0563,-0.0241,-0.0867,-0.0867,-0.0867,-0.0867,-0.0907,-0.0802,-0.0816,-0.073,-0.0732,-0.0699,-0.0712,-0.0738,-0.0664,-0.075,-0.0697,-0.0648,-0.0524,-0.0193,-0.0861,-0.0862,-0.0863,-0.0863,-0.0864,-0.0739,-0.0676,-0.0648,-0.0537,-0.0477,-0.0515,-0.042,-0.0474,-0.052,-0.0474,-0.0361,-0.0361,-0.0053,-0.0457,-0.0456,-0.0455,-0.0455,-0.0454,-0.0453,-0.0539,-0.0509,-0.0401,-0.0328,-0.0279,-0.0229,-0.0239,-0.0214,-0.0175,-0.0196,-0.0196,0.0058,-0.0568,-0.0567,-0.044,-0.0443,-0.0444,-0.0445,-0.0446,-0.0228,-0.0304,-0.013,-0.0071,0.0032,0.0159,0.0077,0.0179,0.018,0.0246,0.0521,-0.0052,-0.0043,-0.0067,-0.0054,0.0199,0.0199,0.0199,0.0199,-0.0065,-0.0075,0.0118,0.0236,0.0333,0.036,0.059,0.0658,0.0832,0.1018,0.0965,0.0941,0.0901,0.0961,0.0914,0.0945,0.1445,0.1447,0.1448,0.0135,0.0141,0.0327,0.0393,0.0492,0.0608,0.09,0.1183,0.1458,0.1524,0.1384,0.1331,0.1307,0.1217,0.1302,0.121,0.1252,0,0]},{"header":{"parameterUnit":"m.s-1","parameterCategory":2,"la1":30.2992,"la2":30.254,"lo1":-89.0895,"lo2":-89.0443,"dy":0.0025,"dx":0.0025,"nx":19,"ny":19,"refTime":"2026-04-14T21:00:00:Z","depth":"0","parameterNumber":3,"parameterNumberName":"V-component_of_CURRENTS"},"data":[0,0,0,-0.0442,-0.0442,-0.0427,-0.0427,-0.0422,-0.0422,0,0,0,0,0,0,0,0,0,0,0,-0.0447,-0.0447,-0.0442,-0.0442,-0.0427,-0.0427,-0.0422,-0.0422,0,0,0,0,0,0,0,0,0,0,0,-0.0447,-0.0447,-0.0447,-0.0442,-0.0427,-0.0427,-0.0422,-0.0429,0,0,0,0,0,0,0,0,0,0,-0.0441,-0.045,-0.0447,-0.0447,-0.0442,-0.0427,-0.0427,-0.0429,-0.0429,-0.0433,0,-0.0432,0,-0.0428,-0.0422,-0.0422,0,0,0,-0.0439,-0.0451,-0.0442,-0.0447,-0.0442,-0.0427,-0.0433,-0.0429,-0.0428,-0.0432,-0.0432,-0.0432,-0.0428,-0.0422,-0.0422,-0.0444,-0.0445,0,0,-0.044,-0.0449,-0.0442,-0.0442,-0.044,-0.0434,-0.0433,-0.0428,-0.0432,-0.0432,-0.0431,-0.0428,-0.0422,-0.0422,-0.0444,-0.0444,0,0,0,-0.0444,-0.045,-0.0441,-0.0442,-0.0439,-0.0433,-0.0432,-0.0432,-0.0427,-0.0431,-0.0428,-0.0422,-0.0422,-0.0444,-0.0444,-0.0434,0,0,0,-0.0445,-0.0452,-0.0441,-0.0447,-0.0439,-0.0435,-0.0436,-0.0428,-0.0427,-0.0428,-0.0422,-0.0422,-0.0444,-0.0444,-0.0434,-0.042,0,0,0,-0.0448,-0.0453,-0.045,-0.0447,-0.0442,-0.0435,-0.043,-0.0427,-0.0425,-0.0422,-0.0422,-0.0443,-0.0444,-0.0434,-0.042,-0.0431,0,0,0,-0.0458,-0.0444,-0.0451,-0.0439,-0.0442,-0.0443,-0.043,-0.0438,-0.0439,-0.0422,-0.0444,-0.0444,-0.0434,-0.042,-0.0431,-0.0343,-0.0337,0,0,-0.0441,-0.0442,-0.0435,-0.044,-0.0426,-0.0445,-0.0447,-0.0445,-0.0447,-0.0445,-0.0445,-0.0434,-0.042,-0.0431,-0.0374,-0.0366,0,0,0,-0.0429,-0.0411,-0.0415,-0.0406,-0.0425,-0.0433,-0.0445,-0.0451,-0.0451,-0.045,-0.0448,-0.044,-0.0447,-0.0394,-0.0388,-0.0225,-0.0447,-0.0447,-0.0447,-0.04,-0.0396,-0.0375,-0.0372,-0.0389,-0.0428,-0.0439,-0.0449,-0.046,-0.0464,-0.0442,-0.0456,-0.04,-0.0395,-0.0228,-0.0459,-0.0459,-0.0459,-0.0459,-0.0326,-0.0288,-0.032,-0.0292,-0.0338,-0.0355,-0.0409,-0.0428,-0.0446,-0.0447,-0.0455,-0.0399,-0.0388,-0.0212,-0.0459,-0.0459,-0.0459,-0.0459,-0.0459,-0.0254,-0.0232,-0.0234,-0.0214,-0.0247,-0.031,-0.0337,-0.0393,-0.0425,-0.0435,-0.0393,-0.0392,-0.0229,-0.0448,-0.0448,-0.0448,-0.0448,-0.0448,-0.0448,-0.0164,-0.0164,-0.0126,-0.0137,-0.0152,-0.0201,-0.0301,-0.0342,-0.0377,-0.0372,-0.0371,-0.0203,-0.0453,-0.0443,-0.0448,-0.0448,-0.0448,-0.0448,-0.0448,-0.0016,-0.0051,0.0021,0.0021,-0.0015,0.0004,-0.014,-0.0199,-0.0276,-0.0269,-0.009,-0.0342,-0.0336,-0.034,-0.0328,-0.0303,-0.0303,-0.0303,-0.0303,0.0068,0.0061,0.0157,0.0182,0.0162,0.0111,0.0198,0.0154,0.0098,0.0146,0.0061,0.0111,0.0097,0.013,0.0116,0.0138,0.028,0.0281,0.0282,0.0164,0.0176,0.0272,0.0283,0.0258,0.0271,0.0461,0.0647,0.0518,0.0319,0.0274,0.0249,0.0331,0.0297,0.0353,0.032,0.0356,0,0]}],[{"header":{"parameterUnit":"m.s-1","parameterCategory":2,"la1":30.2992,"la2":30.254,"lo1":-89.0895,"lo2":-89.0443,"dy":0.0025,"dx":0.0025,"nx":19,"ny":19,"refTime":"2026-04-14T21:00:00:Z","depth":"2","parameterNumber":2,"parameterNumberName":"U-component_of_CURRENTS"},"data":[0,0,0,-0.1155,-0.1155,-0.1147,-0.1147,-0.1132,-0.1132,0,0,0,0,0,0,0,0,0,0,0,-0.1161,-0.1161,-0.1155,-0.1155,-0.1147,-0.1147,-0.1132,-0.1132,0,0,0,0,0,0,0,0,0,0,0,-0.1161,-0.1161,-0.1161,-0.1155,-0.1147,-0.1147,-0.1132,-0.1139,0,0,0,0,0,0,0,0,0,0,-0.1147,-0.1154,-0.1161,-0.1161,-0.1155,-0.1147,-0.1147,-0.1139,-0.1139,-0.1135,0,-0.1138,0,-0.1134,-0.1131,-0.1131,0,0,0,-0.1153,-0.1154,-0.1152,-0.1161,-0.1155,-0.1147,-0.115,-0.1139,-0.1138,-0.1134,-0.1138,-0.1137,-0.1134,-0.1131,-0.1131,-0.1096,-0.1096,0,0,-0.1154,-0.1158,-0.1153,-0.1152,-0.1158,-0.115,-0.115,-0.1138,-0.114,-0.1138,-0.1137,-0.1133,-0.1131,-0.1131,-0.1096,-0.1096,0,0,0,-0.1156,-0.1158,-0.1157,-0.1153,-0.1151,-0.115,-0.115,-0.114,-0.114,-0.1136,-0.1133,-0.1131,-0.1131,-0.1097,-0.1096,-0.1072,0,0,0,-0.1156,-0.116,-0.1157,-0.1159,-0.1151,-0.1146,-0.1152,-0.1141,-0.1139,-0.1133,-0.1131,-0.1131,-0.1097,-0.1096,-0.1073,-0.1016,0,0,0,-0.116,-0.116,-0.1161,-0.116,-0.1157,-0.1146,-0.1145,-0.114,-0.1137,-0.1131,-0.1131,-0.1097,-0.1097,-0.1074,-0.102,-0.0898,0,0,0,-0.1163,-0.1151,-0.1161,-0.1154,-0.1157,-0.1147,-0.1145,-0.1137,-0.1132,-0.1131,-0.1097,-0.1096,-0.1075,-0.1022,-0.0902,-0.0718,-0.0686,0,0,-0.1144,-0.1149,-0.1146,-0.1154,-0.1138,-0.1148,-0.112,-0.1113,-0.1118,-0.1101,-0.11,-0.1073,-0.102,-0.0899,-0.0681,-0.0649,0,0,0,-0.1138,-0.1126,-0.1127,-0.1124,-0.113,-0.1098,-0.111,-0.1092,-0.1071,-0.1112,-0.1066,-0.1032,-0.0956,-0.0855,-0.083,-0.1093,-0.1093,-0.1093,-0.1093,-0.1053,-0.1079,-0.1063,-0.1082,-0.1079,-0.1066,-0.1028,-0.1004,-0.1054,-0.1032,-0.101,-0.0893,-0.0788,-0.0766,-0.1031,-0.1031,-0.1031,-0.1031,-0.1031,-0.0989,-0.0973,-0.1003,-0.1011,-0.1005,-0.0994,-0.0941,-0.0949,-0.0875,-0.0956,-0.0885,-0.0832,-0.0737,-0.1029,-0.1029,-0.103,-0.103,-0.103,-0.103,-0.0913,-0.0912,-0.095,-0.0945,-0.0915,-0.0917,-0.0801,-0.0801,-0.0811,-0.0762,-0.0613,-0.0611,-0.0825,-0.0735,-0.0734,-0.0734,-0.0733,-0.0732,-0.0732,-0.0826,-0.0858,-0.0848,-0.085,-0.0833,-0.0774,-0.0702,-0.0634,-0.0526,-0.0519,-0.0517,-0.079,-0.08,-0.0804,-0.072,-0.0722,-0.0724,-0.0725,-0.0726,-0.0737,-0.0763,-0.0718,-0.071,-0.0651,-0.0522,-0.0494,-0.0292,-0.0213,-0.0114,-0.0346,-0.036,-0.0321,-0.0341,-0.0332,-0.013,-0.013,-0.013,-0.013,-0.0658,-0.0671,-0.0596,-0.0536,-0.0451,-0.0391,-0.0133,0.0085,0.0148,0.0216,0.02,0.014,0.0109,0.0166,0.0135,0.015,0.0478,0.0479,0.048,-0.0587,-0.0571,-0.0479,-0.0442,-0.0363,-0.0244,0.0051,0.0381,0.0575,0.05,0.0264,-0.0081,-0.0217,-0.0247,-0.0205,-0.0237,-0.0231,0,0]},{"header":{"parameterUnit":"m.s-1","parameterCategory":2,"la1":30.2992,"la2":30.254,"lo1":-89.0895,"lo2":-89.0443,"dy":0.0025,"dx":0.0025,"nx":19,"ny":19,"refTime":"2026-04-14T21:00:00:Z","depth":"2","parameterNumber":3,"parameterNumberName":"V-component_of_CURRENTS"},"data":[0,0,0,-0.0102,-0.0102,-0.0062,-0.0062,0.0017,0.0018,0,0,0,0,0,0,0,0,0,0,0,-0.0119,-0.0119,-0.0102,-0.0101,-0.0062,-0.0062,0.0017,0.0018,0,0,0,0,0,0,0,0,0,0,0,-0.0119,-0.0119,-0.0119,-0.0101,-0.0062,-0.0062,0.0016,-0.0021,0,0,0,0,0,0,0,0,0,0,-0.0062,-0.0091,-0.0119,-0.0119,-0.0101,-0.0062,-0.0062,-0.0023,-0.0018,0.0008,0,0.0012,0,0.002,0.0024,0.0024,0,0,0,-0.0102,-0.0095,-0.0074,-0.0119,-0.0101,-0.0063,-0.008,-0.002,-0.0015,0.0014,0.0013,0.0016,0.0021,0.0024,0.0025,0.0024,0.0024,0,0,-0.0105,-0.012,-0.0077,-0.0071,-0.0091,-0.0082,-0.0079,-0.0018,-0.0018,0.0014,0.0018,0.0023,0.0025,0.0025,0.0025,0.0024,0,0,0,-0.011,-0.0122,-0.0103,-0.0074,-0.0067,-0.008,-0.0078,-0.0021,-0.0012,0.0019,0.0023,0.0025,0.0026,0.0026,0.0025,-0.0022,0,0,0,-0.0111,-0.0125,-0.0104,-0.0114,-0.0068,-0.005,-0.0083,-0.0016,-0.0009,0.0023,0.0025,0.0027,0.0026,0.0025,-0.002,0.0013,0,0,0,-0.0121,-0.0126,-0.012,-0.0115,-0.0096,-0.0051,-0.0039,-0.0015,-0.0006,0.0024,0.0028,0.0027,0.0025,-0.0017,0.0015,0.0018,0,0,0,-0.0141,-0.0136,-0.012,-0.0113,-0.0096,-0.0079,-0.0039,-0.0024,-0.0004,0.0026,0.0026,0.0025,-0.0016,0.0017,0.0019,0.0011,0.0005,0,0,-0.0144,-0.0137,-0.0131,-0.0116,-0.0105,-0.0084,-0.0086,-0.0043,-0.0022,0.001,0.001,-0.0021,0.0015,0.0018,-0.0083,-0.0085,0,0,0,-0.0138,-0.0142,-0.0134,-0.0125,-0.0102,-0.009,-0.0073,-0.0064,-0.0059,-0.0016,-0.004,-0.0015,-0.0012,-0.0016,-0.0019,0.0017,0.0017,0.0017,0.0017,-0.0197,-0.017,-0.016,-0.0136,-0.0124,-0.0104,-0.0089,-0.008,-0.0084,-0.0107,-0.0071,-0.0117,-0.0126,-0.0127,-0.0119,-0.0119,-0.0119,-0.0119,-0.0119,-0.0215,-0.0206,-0.0174,-0.0154,-0.013,-0.0135,-0.0108,-0.0116,-0.0116,-0.0127,-0.0124,-0.0087,-0.0133,-0.0123,-0.0123,-0.0122,-0.0122,-0.0121,-0.0121,-0.0266,-0.0248,-0.0229,-0.0184,-0.0165,-0.0148,-0.0132,-0.0122,-0.0127,-0.0125,-0.0135,-0.0134,-0.01,-0.0155,-0.0155,-0.0155,-0.0155,-0.0155,-0.0155,-0.0315,-0.0285,-0.026,-0.0211,-0.0198,-0.018,-0.0153,-0.0152,-0.0149,-0.0147,-0.0148,-0.0128,-0.0126,-0.0101,-0.0153,-0.0153,-0.0153,-0.0154,-0.0154,-0.0355,-0.033,-0.029,-0.0268,-0.0229,-0.0206,-0.0187,-0.017,-0.0171,-0.0162,-0.0152,-0.0153,-0.012,-0.0118,-0.0093,-0.0139,-0.0139,-0.0139,-0.0139,-0.0381,-0.0363,-0.0303,-0.0274,-0.0257,-0.0221,-0.0168,-0.007,-0.0058,-0.0004,-0.0009,-0.0017,-0.0022,0.0017,0.0016,0.0046,0.0036,0.0037,0.0037,-0.0387,-0.0359,-0.0327,-0.0281,-0.0268,-0.0239,-0.0103,0.0171,0.0257,0.0052,0.01,-0.0142,-0.0172,-0.0173,-0.0125,-0.0122,-0.008,0,0]}],[{"header":{"parameterUnit":"m.s-1","parameterCategory":2,"la1":30.2992,"la2":30.254,"lo1":-89.0895,"lo2":-89.0443,"dy":0.0025,"dx":0.0025,"nx":19,"ny":19,"refTime":"2026-04-14T21:00:00:Z","depth":"4","parameterNumber":2,"parameterNumberName":"U-component_of_CURRENTS"},"data":[0,0,0,-0.0119,-0.0119,-0.0131,-0.0131,-0.0195,-0.0195,0,0,0,0,0,0,0,0,0,0,0,-0.012,-0.012,-0.0119,-0.0119,-0.0131,-0.0131,-0.0194,-0.0195,0,0,0,0,0,0,0,0,0,0,0,-0.012,-0.012,-0.012,-0.0119,-0.0131,-0.0131,-0.0194,-0.0175,0,0,0,0,0,0,0,0,0,0,-0.0158,-0.0149,-0.012,-0.012,-0.012,-0.0131,-0.0131,-0.0173,-0.0176,-0.0202,0,-0.0203,0,-0.0198,-0.02,-0.02,0,0,0,-0.0124,-0.0146,-0.0149,-0.012,-0.012,-0.0131,-0.0127,-0.0174,-0.0177,-0.0206,-0.0204,-0.0206,-0.0199,-0.0201,-0.0201,-0.0243,-0.0243,0,0,-0.0123,-0.0124,-0.0147,-0.0151,-0.0124,-0.0127,-0.0127,-0.0176,-0.0181,-0.0204,-0.0207,-0.02,-0.0201,-0.0202,-0.0243,-0.0243,0,0,0,-0.0119,-0.0124,-0.0125,-0.0149,-0.0146,-0.0127,-0.0128,-0.0179,-0.0179,-0.0208,-0.0201,-0.0202,-0.0203,-0.0243,-0.0243,-0.0229,0,0,0,-0.0118,-0.012,-0.0125,-0.0125,-0.0145,-0.0155,-0.013,-0.0176,-0.0181,-0.0201,-0.0202,-0.0203,-0.0244,-0.0243,-0.023,-0.0192,0,0,0,-0.012,-0.012,-0.0122,-0.0125,-0.0127,-0.0154,-0.0157,-0.0176,-0.0177,-0.0201,-0.0203,-0.0244,-0.0243,-0.0231,-0.0194,-0.0125,0,0,0,-0.012,-0.0131,-0.0122,-0.0129,-0.0127,-0.0141,-0.0156,-0.0175,-0.0194,-0.0202,-0.0244,-0.0243,-0.0231,-0.0195,-0.0127,-0.0114,0,0,0,-0.0135,-0.0133,-0.0136,-0.0128,-0.0142,-0.014,-0.0155,-0.0187,-0.0199,-0.0232,-0.0233,-0.023,-0.0194,-0.0126,-0.0102,0,0,0,0,-0.0141,-0.0145,-0.0148,-0.015,-0.0155,-0.0145,-0.0178,-0.0184,-0.0202,-0.0208,-0.0229,-0.0206,-0.0164,-0.0163,-0.0242,-0.0242,-0.0242,-0.0242,-0.0242,-0.0173,-0.0164,-0.0166,-0.0158,-0.0165,-0.0164,-0.0154,-0.0166,-0.0208,-0.0205,-0.0196,-0.0133,-0.0136,-0.0215,-0.0215,-0.0215,-0.0215,-0.0215,-0.0215,-0.018,-0.0164,-0.0163,-0.0161,-0.0149,-0.0161,-0.0145,-0.0151,-0.013,-0.0177,-0.0137,-0.0152,-0.0213,-0.0213,-0.0214,-0.0214,-0.0214,-0.0214,-0.0214,-0.0177,-0.0163,-0.0164,-0.0153,-0.0147,-0.0143,-0.0097,-0.0095,-0.0088,-0.006,-0.0032,-0.0094,-0.009,-0.0041,-0.0041,-0.004,-0.004,-0.0039,-0.0039,-0.0155,-0.0155,-0.0147,-0.0141,-0.0141,-0.0119,-0.0059,-0.0008,0.0017,0.002,-0.0039,-0.0073,-0.0079,-0.0078,-0.0032,-0.0033,-0.0034,-0.0035,-0.0035,-0.0115,-0.013,-0.0117,-0.0115,-0.0107,-0.0097,-0.0036,0.0088,0.0162,0.0207,0.0073,0.0066,0.0081,0.0073,0.0078,0.0173,0.0173,0.0174,0,-0.0089,-0.0094,-0.0082,-0.0083,-0.0072,-0.0075,0.0038,0.0118,0.0165,0.0132,0.0145,-0.0013,-0.0017,-0.0011,-0.0017,-0.0015,0,0,0,-0.0051,-0.0059,-0.0045,-0.0062,-0.0064,0.0004,0.0065,0.0115,0.012,0.025,0.0184,0.0182,0.008,-0.0011,-0.0004,-0.0011,-0.0008,0,0]},{"header":{"parameterUnit":"m.s-1","parameterCategory":2,"la1":30.2992,"la2":30.254,"lo1":-89.0895,"lo2":-89.0443,"dy":0.0025,"dx":0.0025,"nx":19,"ny":19,"refTime":"2026-04-14T21:00:00:Z","depth":"4","parameterNumber":3,"parameterNumberName":"V-component_of_CURRENTS"},"data":[0,0,0,-0.0053,-0.0054,-0.0076,-0.0076,-0.007,-0.007,0,0,0,0,0,0,0,0,0,0,0,-0.0037,-0.0037,-0.0053,-0.0054,-0.0076,-0.0076,-0.007,-0.007,0,0,0,0,0,0,0,0,0,0,0,-0.0037,-0.0037,-0.0037,-0.0054,-0.0076,-0.0076,-0.007,-0.0061,0,0,0,0,0,0,0,0,0,0,-0.0043,-0.0041,-0.0037,-0.0037,-0.0054,-0.0076,-0.0076,-0.0061,-0.0062,-0.0052,0,-0.0053,0,-0.0066,-0.007,-0.0069,0,0,0,-0.0049,-0.0041,-0.0042,-0.0037,-0.0054,-0.0076,-0.0065,-0.0062,-0.0062,-0.0052,-0.0053,-0.0053,-0.0066,-0.0069,-0.0069,-0.0054,-0.0054,0,0,-0.0048,-0.0045,-0.0042,-0.0043,-0.0057,-0.0064,-0.0066,-0.0062,-0.0063,-0.0053,-0.0054,-0.0066,-0.0069,-0.0069,-0.0054,-0.0054,0,0,0,-0.0047,-0.0044,-0.0047,-0.0042,-0.0052,-0.0065,-0.0067,-0.0064,-0.0063,-0.0054,-0.0066,-0.0069,-0.0069,-0.0054,-0.0054,-0.0075,0,0,0,-0.0046,-0.0044,-0.0046,-0.0045,-0.0052,-0.0065,-0.0068,-0.0063,-0.0063,-0.0066,-0.0069,-0.0069,-0.0054,-0.0054,-0.0075,-0.0064,0,0,0,-0.0036,-0.0044,-0.0044,-0.0045,-0.0057,-0.0066,-0.0065,-0.0063,-0.0071,-0.0069,-0.0069,-0.0054,-0.0054,-0.0074,-0.0064,-0.0,0,0,0,-0.0036,-0.005,-0.0044,-0.0062,-0.0057,-0.0073,-0.0066,-0.008,-0.0081,-0.0069,-0.0054,-0.0054,-0.0074,-0.0064,-0.0001,0.0047,0,0,0,-0.0057,-0.0053,-0.0063,-0.0059,-0.008,-0.0069,-0.0084,-0.0084,-0.0071,-0.0052,-0.0052,-0.0075,-0.0064,-0.0,0.0058,0,0,0,0,-0.0072,-0.0079,-0.0083,-0.0093,-0.0096,-0.0095,-0.0097,-0.0087,-0.0076,-0.0072,-0.0065,-0.0056,-0.0016,0.0009,-0.0053,-0.0053,-0.0053,-0.0053,-0.0053,-0.0107,-0.0105,-0.0119,-0.0117,-0.0118,-0.0116,-0.0106,-0.0089,-0.0084,-0.0079,-0.0067,-0.0024,-0.0001,-0.007,-0.007,-0.007,-0.007,-0.007,-0.007,-0.0144,-0.0153,-0.0138,-0.0153,-0.0139,-0.0143,-0.0113,-0.0107,-0.0053,-0.0072,-0.0031,-0.0009,-0.0072,-0.0072,-0.0072,-0.0071,-0.0071,-0.0071,-0.0071,-0.0172,-0.0174,-0.0177,-0.0182,-0.017,-0.0153,-0.0083,-0.008,-0.0054,-0.0028,0.0054,-0.0006,-0.0008,0.0009,0.0009,0.0009,0.001,0.001,0.001,-0.0203,-0.0202,-0.0211,-0.0206,-0.019,-0.0144,-0.0061,0.0012,0.0035,0.0063,-0.0007,0.0005,0.0002,-0.0001,0.0015,0.0014,0.0013,0.0013,0.0012,-0.024,-0.0239,-0.0247,-0.0239,-0.0182,-0.0119,-0.0036,0.0126,0.0209,0.0252,0.0128,0.0121,0.0152,0.0147,0.015,0.021,0.0211,0.0212,0,-0.0264,-0.0265,-0.0267,-0.0241,-0.0166,-0.0101,0.0077,0.0184,0.0214,0.0176,0.0175,0.0025,0.0023,0.0047,0.0044,0.0042,0,0,0,-0.0283,-0.0278,-0.0278,-0.025,-0.016,0.0012,0.0131,0.0189,0.017,0.0322,0.0231,0.0226,0.0153,0.0029,0.0061,0.0058,0.0056,0,0]}]]